TimeCDT,TemperatureF,Dew PointF,Humidity,Sea Level PressureIn,VisibilityMPH,Wind Direction,Wind SpeedMPH,Gust SpeedMPH,PrecipitationIn,Events,Conditions,WindDirDegrees,DateUTC
12:53 AM,46.9,37.9,71,29.38,10.0,SSE,9.2,-,N/A,,Overcast,160,2014-04-01 05:53:00
1:16 AM,44.1,37.0,76,29.39,10.0,SSW,9.2,25.3,N/A,,Overcast,210,2014-04-01 06:16:00
1:53 AM,39.0,32.0,76,29.44,10.0,SW,8.1,19.6,N/A,,Overcast,230,2014-04-01 06:53:00
2:32 AM,36.0,30.9,82,29.42,10.0,Variable,5.8,-,N/A,,Overcast,0,2014-04-01 07:32:00
2:53 AM,36.0,30.0,79,29.46,10.0,SW,8.1,17.3,N/A,,Overcast,220,2014-04-01 07:53:00
3:24 AM,32.0,30.0,92,29.44,4.0,Variable,5.8,-,0.00,Rain,Light Rain,0,2014-04-01 08:24:00
3:32 AM,32.0,30.0,92,29.44,5.0,Variable,4.6,-,0.00,,Overcast,0,2014-04-01 08:32:00
3:53 AM,30.9,28.9,92,29.49,4.0,SSW,9.2,-,0.00,Rain,Light Freezing Rain,200,2014-04-01 08:53:00
4:29 AM,30.0,28.0,92,29.45,4.0,SW,5.8,-,0.00,,Overcast,220,2014-04-01 09:29:00
4:33 AM,30.0,28.0,92,29.45,4.0,Variable,6.9,-,0.00,,Overcast,0,2014-04-01 09:33:00
4:48 AM,30.2,28.4,93,29.45,3.0,SSW,9.2,-,0.00,Rain,Light Freezing Rain,210,2014-04-01 09:48:00
4:53 AM,30.0,28.0,92,29.49,3.0,SSW,8.1,-,0.00,Rain,Light Freezing Rain,200,2014-04-01 09:53:00
5:18 AM,30.0,28.0,92,29.46,5.0,Variable,4.6,-,0.00,,Overcast,0,2014-04-01 10:18:00
5:50 AM,28.4,26.6,93,29.47,5.0,Variable,6.9,-,0.00,,Overcast,0,2014-04-01 10:50:00
5:53 AM,28.9,27.0,92,29.51,4.0,Variable,6.9,-,0.00,,Overcast,0,2014-04-01 10:53:00
6:05 AM,28.9,27.0,92,29.47,4.0,SSW,8.1,-,0.00,Rain,Light Freezing Rain,200,2014-04-01 11:05:00
6:17 AM,28.9,27.0,92,29.47,5.0,SSW,9.2,-,0.00,,Overcast,200,2014-04-01 11:17:00
6:43 AM,28.9,27.0,92,29.48,4.0,SSW,8.1,-,0.00,,Overcast,210,2014-04-01 11:43:00
6:53 AM,28.9,27.0,92,29.52,4.0,SSW,6.9,-,0.00,Rain,Light Freezing Rain,210,2014-04-01 11:53:00
7:00 AM,28.9,27.0,92,29.49,5.0,SSW,5.8,-,0.00,,Overcast,210,2014-04-01 12:00:00
7:32 AM,28.9,27.0,92,29.51,2.0,WSW,6.9,-,0.01,Snow,Light Snow,240,2014-04-01 12:32:00
7:34 AM,28.9,27.0,92,29.52,1.0,WSW,11.5,19.6,0.01,Snow,Light Snow,250,2014-04-01 12:34:00
7:42 AM,26.1,23.0,88,29.53,0.8,North,-9999.0,-,0.01,Snow,Light Snow,0,2014-04-01 12:42:00
7:45 AM,25.0,21.9,88,29.53,1.2,North,-9999.0,-,0.01,Snow,Light Snow,0,2014-04-01 12:45:00
7:50 AM,24.8,21.2,86,29.53,3.0,West,9.2,-,0.01,Snow,Light Snow,280,2014-04-01 12:50:00
7:53 AM,24.1,19.9,84,29.58,4.0,West,9.2,-,0.01,Snow,Light Snow,270,2014-04-01 12:53:00
8:36 AM,21.9,17.1,82,29.58,3.0,WNW,10.4,-,0.00,Snow,Light Snow,290,2014-04-01 13:36:00
8:53 AM,21.0,16.0,81,29.64,9.0,West,8.1,-,0.01,,Overcast,280,2014-04-01 13:53:00
9:06 AM,19.9,15.1,81,29.61,10.0,WNW,10.4,20.7,0.00,,Overcast,290,2014-04-01 14:06:00
9:32 AM,19.0,14.0,81,29.62,2.5,Variable,5.8,-,0.00,Snow,Light Snow,0,2014-04-01 14:32:00
9:53 AM,18.0,12.9,81,29.69,2.0,West,10.4,17.3,0.00,Snow,Light Snow,280,2014-04-01 14:53:00
10:15 AM,18.0,12.9,81,29.66,1.2,Variable,6.9,-,0.00,Snow,Light Snow,0,2014-04-01 15:15:00
10:30 AM,19.0,12.0,74,29.67,2.0,WNW,13.8,21.9,0.00,Snow,Light Snow,290,2014-04-01 15:30:00
10:45 AM,18.0,10.0,71,29.68,3.0,Variable,5.8,25.3,0.00,Snow,Light Snow,0,2014-04-01 15:45:00
10:53 AM,18.0,10.9,74,29.73,3.0,WNW,8.1,18.4,0.00,Snow,Light Snow,290,2014-04-01 15:53:00
10:59 AM,18.0,10.9,74,29.69,1.8,Variable,6.9,18.4,0.00,Snow,Light Snow,0,2014-04-01 15:59:00
11:14 AM,19.0,12.0,74,29.70,2.5,West,10.4,19.6,0.00,Snow,Light Snow,260,2014-04-01 16:14:00
11:21 AM,19.0,12.0,74,29.71,5.0,WNW,10.4,24.2,0.00,Snow,Light Snow,300,2014-04-01 16:21:00
11:53 AM,19.9,12.0,71,29.77,4.0,WNW,8.1,24.2,0.00,Snow,Light Snow,290,2014-04-01 16:53:00
12:01 PM,19.0,10.9,71,29.73,1.8,West,10.4,21.9,0.00,Snow,Light Snow,280,2014-04-01 17:01:00
12:13 PM,18.0,12.0,78,29.74,1.0,WNW,9.2,18.4,0.00,Snow,Light Snow,290,2014-04-01 17:13:00
12:19 PM,19.0,12.0,74,29.75,2.0,WNW,11.5,20.7,0.00,Snow,Light Snow,290,2014-04-01 17:19:00
12:40 PM,19.0,10.0,68,29.77,4.0,WNW,9.2,23.0,0.00,Snow,Light Snow,290,2014-04-01 17:40:00
12:53 PM,19.9,10.9,68,29.82,7.0,WNW,12.7,20.7,0.00,Snow,Light Snow,290,2014-04-01 17:53:00
1:23 PM,19.9,12.0,71,29.80,1.8,West,9.2,18.4,0.00,Snow,Light Snow,280,2014-04-01 18:23:00
1:53 PM,21.9,14.0,72,29.86,2.5,WNW,8.1,20.7,0.00,Snow,Light Snow,290,2014-04-01 18:53:00
2:05 PM,21.9,12.9,68,29.82,4.0,West,8.1,20.7,0.00,Snow,Light Snow,270,2014-04-01 19:05:00
2:53 PM,25.0,15.1,66,29.88,10.0,West,11.5,18.4,0.00,,Overcast,270,2014-04-01 19:53:00
3:53 PM,28.9,15.1,56,29.90,10.0,WNW,9.2,17.3,N/A,,Overcast,290,2014-04-01 20:53:00
4:39 PM,30.0,16.0,56,29.87,10.0,Variable,5.8,19.6,N/A,,Scattered Clouds,0,2014-04-01 21:39:00
4:53 PM,30.9,16.0,54,29.92,10.0,West,9.2,-,N/A,,Scattered Clouds,280,2014-04-01 21:53:00
5:53 PM,30.0,16.0,56,29.96,10.0,West,8.1,16.1,N/A,,Partly Cloudy,260,2014-04-01 22:53:00
6:53 PM,30.9,16.0,54,29.99,10.0,Variable,5.8,-,N/A,,Clear,0,2014-04-01 23:53:00
7:53 PM,28.9,16.0,58,30.03,10.0,Calm,Calm,-,N/A,,Clear,0,2014-04-02 00:53:00
8:53 PM,27.0,16.0,63,30.07,10.0,Calm,Calm,-,N/A,,Clear,0,2014-04-02 01:53:00
9:53 PM,21.9,15.1,75,30.10,10.0,Calm,Calm,-,N/A,,Clear,0,2014-04-02 02:53:00
10:53 PM,25.0,15.1,66,30.12,10.0,Calm,Calm,-,N/A,,Clear,0,2014-04-02 03:53:00
11:53 PM,24.1,15.1,69,30.14,10.0,Calm,Calm,-,N/A,,Clear,0,2014-04-02 04:53:00